Weather History for Avoca, PA

Change the Weather History Date:

Tuesday, January 22, 2013

  Actual Average Record
Temperature  
Mean Temperature 12 °F 26 °F  
Max Temperature 17 °F 33 °F 66 °F (1906)
Min Temperature 6 °F 18 °F -11 °F (1984)
Degree Days  
Heating Degree Days 53 39  
Month to date heating degree days 748 857  
Since 1 July heating degree days 2862 3235  
Cooling Degree Days 0 0  
Month to date cooling degree days 0 0  
Year to date cooling degree days 0 0  
Moisture  
Dew Point 0 °F    
Average Humidity 61    
Maximum Humidity 80    
Minimum Humidity 42    
Precipitation  
Precipitation T in 0.08 in 0.90 in (1904)
Month to date precipitation 0.73 1.65  
Year to date precipitation 0.73 1.65  
Sea Level Pressure  
Sea Level Pressure 30.02 in    
Wind  
Wind Speed 12 mph (West)    
Max Wind Speed 25 mph    
Max Gust Speed 35 mph    
Visibility 8 miles    
Events Snow    
T = Trace of Precipitation, MM = Missing Value Source: NWS Daily Summary

Daily Weather History Graph

Daily Weather History Graph

Search for Another Location

Airport:

Trip Planner

Search our weather history database for the weather conditions in past years. The results will help you decide how hot, cold, wet, or windy it might be!

Date:

Astronomy

Jan. 22, 2013 Rise Set
Actual Time 7:22 AM EST 5:07 PM EST
Civil Twilight 6:52 AM EST 5:37 PM EST
Nautical Twilight 6:18 AM EST 6:10 PM EST
Astronomical Twilight 5:46 AM EST 6:43 PM EST
Moon 1:27 PM EST (1/22) 3:42 AM EST (1/22)
Length of Visible Light 10h 44m
Length of Day
9h 44m
Waxing Gibbous, 82% of the Moon is Illuminated
Jan 22
Waxing Gibbous
Jan 26
Full
Feb 3
Last Quarter
Feb 10
New
Feb 17
First Quarter

Hourly Weather History & Observations

Time (EST) Temp. Windchill Dew Point Humidity Pressure Visibility Wind Dir Wind Speed Gust Speed Precip Events Conditions
12:54 AM 16.0 °F 6.3 °F 6.1 °F 65% 29.86 in 10.0 mi West 6.9 mph - N/A   Scattered Clouds
1:54 AM 16.0 °F 6.3 °F 7.0 °F 68% 29.87 in 10.0 mi WSW 6.9 mph - N/A   Overcast
2:54 AM 15.1 °F 3.3 °F 10.0 °F 80% 29.89 in 10.0 mi WSW 9.2 mph - N/A   Mostly Cloudy
3:54 AM 15.1 °F 1.8 °F 6.1 °F 68% 29.91 in 10.0 mi West 11.5 mph 19.6 mph N/A   Overcast
4:21 AM 14.0 °F 2.0 °F 8.6 °F 79% 29.88 in 1.8 mi WNW 9.2 mph - 0.00 in Snow Light Snow
4:29 AM 14.0 °F 2.9 °F 8.6 °F 79% 29.88 in 1.8 mi WNW 8.1 mph - 0.00 in Snow Light Snow
4:44 AM 14.0 °F 2.9 °F 8.6 °F 79% 29.89 in 2.5 mi WNW 8.1 mph - 0.00 in Snow Light Snow
4:51 AM 14.0 °F 1.2 °F 8.6 °F 79% 29.89 in 5.0 mi West 10.4 mph 16.1 mph 0.00 in Snow Light Snow
4:54 AM 14.0 °F -0.8 °F 7.0 °F 74% 29.94 in 6.0 mi West 13.8 mph - 0.00 in Snow Light Snow
5:54 AM 10.9 °F 1.4 °F 5.0 °F 77% 29.96 in 10.0 mi WSW 5.8 mph - N/A   Partly Cloudy
6:54 AM 10.9 °F -3.4 °F 3.0 °F 70% 29.99 in 10.0 mi WSW 11.5 mph - N/A   Partly Cloudy
7:54 AM 10.0 °F -4.5 °F 1.0 °F 67% 30.01 in 10.0 mi WSW 11.5 mph - N/A   Clear
8:54 AM 12.0 °F -5.1 °F -6.0 °F 44% 30.04 in 10.0 mi WNW 17.3 mph 29.9 mph N/A   Partly Cloudy
9:54 AM 12.9 °F -6.1 °F -6.0 °F 43% 30.05 in 10.0 mi WNW 23.0 mph 27.6 mph N/A   Clear
10:54 AM 12.9 °F -2.2 °F -7.1 °F 41% 30.07 in 10.0 mi WNW 13.8 mph 23.0 mph N/A   Overcast
11:54 AM 12.9 °F -3.9 °F -5.1 °F 45% 30.06 in 10.0 mi WNW 17.3 mph 24.2 mph N/A   Mostly Cloudy
12:54 PM 12.9 °F 0.7 °F -4.0 °F 47% 30.04 in 10.0 mi West 9.2 mph 18.4 mph N/A   Overcast
1:24 PM 12.2 °F -2.5 °F 3.2 °F 67% 30.00 in 1.8 mi West 12.7 mph - 0.00 in Snow Light Snow
1:32 PM 12.2 °F -2.5 °F 1.4 °F 62% 29.99 in 1.8 mi WNW 12.7 mph 23.0 mph 0.00 in Snow Light Snow
1:36 PM 12.2 °F -1.0 °F 1.4 °F 62% 29.99 in 3.0 mi NW 10.4 mph 23.0 mph 0.00 in Snow Light Snow
1:54 PM 12.9 °F -1.6 °F 1.0 °F 59% 30.04 in 10.0 mi NNW 12.7 mph - 0.00 in   Overcast
2:08 PM 10.4 °F -4.8 °F 3.2 °F 73% 30.00 in 1.8 mi NW 12.7 mph 23.0 mph 0.00 in Snow Light Snow
2:25 PM 10.4 °F -3.3 °F 1.4 °F 67% 30.00 in 2.0 mi WNW 10.4 mph - 0.00 in Snow Light Snow
2:30 PM 10.4 °F -3.3 °F 1.4 °F 67% 30.00 in 6.0 mi WNW 10.4 mph - 0.00 in Snow Light Snow
2:54 PM 12.9 °F -0.9 °F -0.9 °F 54% 30.06 in 10.0 mi WNW 11.5 mph - 0.00 in   Clear
3:54 PM 14.0 °F -0.8 °F 1.0 °F 56% 30.07 in 10.0 mi NW 13.8 mph - N/A   Overcast
4:54 PM 12.0 °F -1.3 °F -6.0 °F 44% 30.10 in 10.0 mi WNW 10.4 mph - N/A   Partly Cloudy
5:54 PM 10.9 °F -4.1 °F -2.0 °F 56% 30.14 in 10.0 mi WNW 12.7 mph 19.6 mph N/A   Mostly Cloudy
6:54 PM 10.0 °F -3.7 °F -2.9 °F 56% 30.17 in 10.0 mi NW 10.4 mph - N/A   Mostly Cloudy
7:54 PM 8.1 °F -6.2 °F -6.0 °F 53% 30.19 in 10.0 mi WNW 10.4 mph 20.7 mph N/A   Scattered Clouds
8:54 PM 8.1 °F -7.0 °F -7.1 °F 50% 30.18 in 10.0 mi West 11.5 mph - N/A   Clear
9:54 PM 7.0 °F -7.5 °F -6.0 °F 55% 30.19 in 10.0 mi WSW 10.4 mph - N/A   Clear
10:54 PM 6.1 °F -8.7 °F -7.1 °F 55% 30.20 in 10.0 mi WSW 10.4 mph - N/A   Clear
11:54 PM 6.1 °F -9.5 °F -7.1 °F 55% 30.18 in 10.0 mi WSW 11.5 mph - N/A   Clear